Regional Weather Roundup
Issued by NWS Raleigh/Durham, NC

Home | Current Version | Previous Version | Text Only | Print | Product List | Glossary On
Versions: 1 2 3 4 5 6 7 8 9 10 11 12 13 14 15 16 17 18 19 20 21 22 23 24 25 26 27 28 29 30 31 32 33 34 35 36 37 38 39 40 41 42 43 44 45 46 47 48 49 50
920
ASUS42 KRAH 290710
RWRRAH
NORTH CAROLINA WEATHER ROUNDUP
NATIONAL WEATHER SERVICE RALEIGH NC
300 AM EDT WED MAR 29 2017

NOTE: "FAIR" INDICATES FEW OR NO CLOUDS BELOW 12,000 FEET WITH NO
SIGNIFICANT WEATHER AND/OR OBSTRUCTIONS TO VISIBILITY.

NCZ001-053-055-056-065-067-290800-
WESTERN NORTH CAROLINA

CITY           SKY/WX    TMP DP  RH WIND       PRES   REMARKS
ASHEVILLE      CLEAR     51  47  86 CALM      30.06S
JEFFERSON      CLEAR     50  45  83 W5        30.07S
MORGANTON      CLEAR     55  49  79 N5        30.06S
HICKORY        CLEAR     58  49  72 CALM      30.01R
RUTHERFORDTON  CLEAR     57  50  77 NW6       30.02S
MOUNT AIRY     CLEAR     59  52  77 N3        30.03S
BOONE          CLEAR     46  45  93 NW5       30.08S
$$

NCZ021-022-025-041-071-084-088-290800-
CENTRAL NORTH CAROLINA

CITY           SKY/WX    TMP DP  RH WIND       PRES   REMARKS
CHARLOTTE      PTCLDY    58  49  72 N6        30.00S
GREENSBORO     CLEAR     57  50  77 CALM      29.98S
WINSTON-SALEM  CLEAR     58  48  69 W5        30.01R
RALEIGH-DURHAM PTCLDY    60  49  66 CALM      29.96S
FORT BRAGG     CLEAR     59  52  79 NW3       29.94F
FAYETTEVILLE   CLEAR     64  51  62 N5        29.95S
BURLINGTON     CLEAR     60  50  69 NW5       29.97S
LAURINBURG     CLEAR     64  50  60 N5        29.96S
$$

NCZ011-015-027-028-043-044-047-080-103-290800-
NORTHEASTERN NORTH CAROLINA

CITY           SKY/WX    TMP DP  RH WIND       PRES   REMARKS
ROCKY MT-WILSO CLEAR     60  53  77 NW6       29.93F
GREENVILLE     FOG       54  54 100 CALM      29.95S VSB 1
WASHINGTON     FOG       55  55 100 CALM      29.93S VSB 1/4
ELIZABETH CITY PTCLDY    59  57  93 N7        29.92R
MANTEO         CLEAR     58  58  97 N5        29.92R
CAPE HATTERAS  CLEAR     63  60  90 NW5       29.89F FOG
$$

NCZ078-087-090-091-093-098-101-290800-
SOUTHEASTERN NORTH CAROLINA

CITY           SKY/WX    TMP DP  RH WIND       PRES   REMARKS
LUMBERTON      PTCLDY    63  52  67 N5        29.94F
GOLDSBORO      PTCLDY    57  57 100 CALM      29.92S
KINSTON        PTCLDY    58  58 100 W3        29.94S
KENANSVILLE    MOCLDY    59  59 100 NW3       29.94S FOG
NEW BERN       FOG       53  53 100 CALM      29.93R VSB 1/4
CHERRY POINT   NOT AVBL
BEAUFORT       CLEAR     62  62 100 NW6       29.91S
JACKSONVILLE   CLOUDY    58  58 100 CALM      29.92S VSB 1/2
WILMINGTON     MOCLDY    61  60  97 CALM      29.92F
$$





USA.gov is the U.S. government's official web portal to all federal, state and local government web resources and services.